Orbital Elements at Epoch 2459000.5 (2020-May-31.0) TDB
Reference: JPL 17 (heliocentric ecliptic J2000)
Element | Value | Uncertainty (1-sigma) | Units |
e | .0712017100768948 | 4.6375e-08 | |
a | 2.34124642982373 | 1.3639e-08 | au |
q | 2.174545680308856 | 1.0802e-07 | au |
i | 5.776022610613878 | 4.6091e-06 | deg |
node | 92.87468767284163 | 5.3551e-05 | deg |
peri | 41.54724383486937 | 6.4103e-05 | deg |
M | 139.0903578226582 | 3.5754e-05 | deg |
tp | 2458494.950549493800 (2019-Jan-11.45054949) | 0.00012896 | TDB |
period | 1308.486116731983 3.58 | 1.1434e-05 3.13e-08 | d yr |
n | .2751271071175903 | 2.4042e-09 | deg/d |
Q | 2.507947179338605 | 1.461e-08 | au |
|
| | Orbit Determination Parameters
Additional Information
|